Terug naar catalogus

STARLINK-32227

ActiefCommunicatieVLEO
NORAD 60361·PAYLOAD·🇺🇸 United States

Gelanceerd Aug 4, 2024 vanaf Vandenberg Space Force Base

Loading…

Volgende Passages (komende 24 uur)

TLE

VersSource: CelesTrak SupGP

Epoch: Sep 15, 2026, 03:31 UTC

1 60361C 24138G   26258.14701389  .00053444  00000+0  15788-2 0  2588
2 60361  53.1587 148.9450 0001344  77.9752 276.2890 15.34367529    17

Volg STARLINK-32227 in realtime met AllMySat

Download on the App Store